Cordoba, Spain

5:04 PM CEST on September 21, 2017 (GMT +0200)
Cordoba

Weather History for LEBA - October, 2013

Change the Weather History Date:

Thursday, October 31, 2013

  Actual Average Record
Temperature  
Mean Temperature 58 °F -  
Max Temperature 72 °F - - ()
Min Temperature 43 °F - - ()
Degree Days  
Heating Degree Days 8    
Growing Degree Days 8 (Base 50)    
Moisture  
Dew Point 40 °F    
Average Humidity 49    
Maximum Humidity 81    
Minimum Humidity 16    
Precipitation  
Precipitation 0.00 in 0.12 in - ()
Sea Level Pressure  
Sea Level Pressure 30.22 in    
Wind  
Wind Speed 3 mph ()    
Max Wind Speed 7 mph    
Max Gust Speed -    
Visibility 19.0 miles    
Events      
T = Trace of Precipitation, MM = Missing Value Source: Averaged Metar Reports

Daily Weather History Graph

Daily Weather History Graph

Search for Another Location

Airport or City:

Trip Planner

Search our weather history database for the weather conditions in past years. The results will help you decide how hot, cold, wet, or windy it might be!

Date:

Astronomy

Oct. 31, 2013 Rise Set
Actual Time 7:43 AM CET 6:21 PM CET
Civil Twilight 7:16 AM CET 6:48 PM CET
Nautical Twilight 6:45 AM CET 7:19 PM CET
Astronomical Twilight 6:14 AM CET 7:50 PM CET
Moon 4:21 AM CET (10/31) 4:29 PM CET (10/31)
Length of Visible Light 11h 32m
Length of Day
10h 37m
Waning Crescent, 11% of the Moon is Illuminated
Oct 31
Waning Crescent
Nov 3
New
Nov 10
First Quarter
Nov 17
Full
Nov 25
Last Quarter

Hourly Weather History & Observations

Time (CET) Temp. Dew Point Humidity Pressure Visibility Wind Dir Wind Speed Gust Speed Precip Events Conditions
1:00 AM 50 °F 40 °F 59% 30.22 in - NE 3.5 mph - -  
7:00 AM 44 °F 40 °F 79% 30.25 in 19 mi ESE 1.2 mph - -  
7:00 AM 44.6 °F 39.2 °F 81% 30.24 in - ESE 1.2 mph - N/A   Clear
8:00 AM 44.6 °F 39.2 °F 81% 30.24 in - Calm Calm - N/A   Clear
9:00 AM 50.0 °F 41.0 °F 71% 30.27 in - Variable 2.3 mph - N/A   Clear
10:00 AM 53.6 °F 41.0 °F 62% 30.27 in - East 5.8 mph - N/A   Clear
11:00 AM 59.0 °F 41.0 °F 51% 30.27 in - East 6.9 mph - N/A   Clear
12:00 PM 62.6 °F 41.0 °F 45% 30.27 in - East 4.6 mph - N/A   Clear
1:00 PM 67 °F 38 °F 23% 30.24 in 25 mi East 5.8 mph - -  
1:00 PM 64.4 °F 39.2 °F 40% 30.24 in - East 5.8 mph - N/A   Clear
2:00 PM 68.0 °F 35.6 °F 30% 30.21 in - ENE 4.6 mph - N/A   Clear
3:00 PM 68.0 °F 37.4 °F 33% 30.18 in - ENE 4.6 mph - N/A   Clear
4:00 PM 72 °F 35 °F 16% 30.19 in 25 mi SE 3.5 mph - -  
4:00 PM 69.8 °F 37.4 °F 31% 30.18 in - Variable 2.3 mph - N/A   Clear
5:00 PM 69.8 °F 37.4 °F 31% 30.18 in - Calm Calm - N/A   Clear
6:00 PM 68.0 °F 41.0 °F 37% 30.18 in - Calm Calm - N/A   Clear
7:00 PM 60 °F 43 °F 42% 30.21 in 25 mi North 2.3 mph - -  
7:00 PM 59.0 °F 42.8 °F 55% 30.21 in - North 1.2 mph - N/A   Clear
8:00 PM 55.4 °F 42.8 °F 63% 30.21 in - Variable 1.2 mph - N/A   Clear